SCISAT 1

Last updated on Mon Sep 21 2026 00:03:33 GMT+0000 (Coordinated Universal Time)

1 27858U 03036A 26263.23666107 .00000293 00000+0 42006-4 0 9991 2 27858 73.9323 342.4761 0006952 13.3706 346.7653 14.81541989245520
UTC large
Height (km)
Speed (km/s)
/
Latitude / Longitude
Inclination (degrees)
Orbital Period (minutes)
Azimuth
Elevation
Range (km)
Doppler Factor

Next 0 passes for location: London (51.5072 / 0.1276)

No passes found over London.
SCISAT 1